Location: Fort Worth, Tx
(32.7431°N, 97.3695°W)
Time: 07:49:59
(UTC-04:00)

Explorer 11/Cluster Stage 4 - Pass Details

Date: 03 February 2023
Orbit: 466 x 1241 km, 28.8° (Epoch: 02 April)

Event Time Altitude Azimuth Distance (km) Brightness Sun altitude
Exits shadow 04:54:57 25° 128° (SE) 2,204 9.0 -44.0°
Drops below altitude 10° 04:59:28 10° 98° (E) 3,190 10.3 -43.0°
Sets 05:02:52 0° 87° (E) 4,172 11.1 -42.3°
